Location: Unspecified
(23.0900°N, 113.1700°E)
Time: 18:18:31
(UTC+00:00)

Daily predictions for brighter satellites

Satellite Brightness Start Highest point End
(mag) Time Altitude Azimuth Time Altitude Azimuth Time Altitude Azimuth
Hubble Space Telescope 4.0 12:16:40 10° W 12:16:43 10° W 12:16:43 10° W
BREEZE-M DEB (TANK) 4.0 12:23:29 10° SW 12:26:32 52° WSW 12:26:32 52° WSW
CZ-4C R/B 3.4 12:24:15 10° NNW 12:32:28 68° WSW 12:34:35 54° S
Chandra Rocket (1) 4.5 12:04:22 10° SW 12:35:14 65° SSE 12:35:41 64° SSE
CZ-3 R/B 4.2 17:42:29 10° W 18:48:14 68° NE 18:58:39 10° E
Cosmos 1697 Rocket 3.6 20:30:08 42° NE 20:30:38 43° ENE 20:35:58 10° SE
COSMOS 2406 4.0 20:39:42 10° S 20:45:08 49° ESE 20:50:34 10° NNE
OAO 2 Rocket 4.0 20:49:13 48° SSE 20:49:45 50° SSE 20:54:44 10° ENE
Cosmos 1544 Rocket 4.3 20:53:33 49° ENE 20:54:01 51° E 20:58:15 10° SSE
Cosmos 841 Rocket 3.7 20:50:03 10° S 20:55:10 67° ESE 21:00:21 10° NNE
Atlas Centaur 2 3.3 20:55:45 42° SW 20:57:07 46° SSW 21:04:50 10° SE
Cosmos 2082 Rocket 4.0 21:01:39 17° N 21:01:39 17° N 21:02:55 10° N
SL-16 R/B 3.1 20:51:48 10° S 20:56:19 41° SW 20:56:19 41° SW
Cosmos 1634 Rocket 3.8 21:02:49 51° NNW 21:04:17 68° W 21:10:28 10° S
Atlas 2A Centaur Rocket 2.7 21:05:23 39° ENE 21:05:23 39° ENE 21:06:55 10° E
Cosmos 1503 Rocket 3.8 21:04:42 75° W 21:04:49 75° WSW 21:09:57 10° S
Cosmos 1354 Rocket 4.0 21:09:44 37° N 21:11:52 82° ENE 21:17:04 10° SSE
Centaur AC-119 3.6 21:14:25 27° SW 21:17:34 56° SSE 21:22:57 10° E
Cosmos 1782 3.5 21:19:42 35° SSW 21:19:42 35° SSW 21:21:55 10° S
EPKM 2.2 21:18:12 72° WNW 21:18:27 77° NNW 21:20:59 10° ENE
OAO 3 Copernicus 4.5 21:18:41 49° NW 21:18:56 49° NNW 21:23:47 10° NE
Delta 198 4.3 21:18:49 43° W 21:21:05 79° N 21:27:16 10° E
Cosmos 2279 Rocket 3.9 21:15:50 12° N 21:21:41 74° W 21:27:54 10° S
FengYun 1-2 T 4.3 21:18:17 10° N 21:23:47 57° WNW 21:29:17 10° SSW
FUSE 4.4 21:24:41 25° SW 21:27:44 57° SSE 21:32:59 10° E
IRS-1D 3.4 21:23:13 10° N 21:28:15 76° WNW 21:33:23 10° SSW
Centaur AC-112 4.0 21:26:47 35° WNW 21:29:27 71° N 21:54:55 10° E
Cosmos 1980 Rocket 2.4 21:27:00 11° N 21:32:18 68° ENE 21:37:49 10° SSE
UNK 4.2 21:29:01 10° SSW 21:33:16 38° W 21:33:51 37° W
CZ-3C R/B 2.0 21:31:47 29° WSW 21:33:30 62° SSE 21:46:21 10° E
Fermi 3.5 21:33:32 46° WSW 21:34:37 90° E 21:38:33 10° ENE
Cosmos 2180 Rocket 4.4 21:28:34 10° N 21:34:53 85° W 21:41:14 10° S
Cosmos 1933 4.1 21:33:10 10° N 21:36:51 48° E 21:40:31 10° SSE
Cosmos 2026 Rocket 4.2 21:35:53 10° S 21:41:53 71° E 21:47:54 10° N
SKYMED 2 4.0 21:43:37 10° SSE 21:47:53 63° ENE 21:52:10 10° N
COSMO-SKYMED 1 3.9 21:45:26 10° SE 21:49:13 37° ENE 21:53:01 10° N
NOAA 12 4.2 21:47:01 10° N 21:52:04 48° WNW 21:57:05 10° SSW
Cosmos 2098 Rocket 4.1 21:48:22 10° NNW 21:53:47 41° W 21:59:00 10° SSW
SL-24 R/B 4.5 21:50:19 10° N 21:55:04 46° WNW 21:59:14 10° SSW
Cosmos 372 Rocket 4.0 21:56:09 10° NNW 22:01:13 80° ENE 22:06:16 10° SSE
Cosmos 1092 Rocket 4.0 21:58:51 10° S 22:05:10 82° W 22:11:28 10° N
Cosmos 1814 Rocket 4.4 22:00:32 10° S 22:05:39 69° ESE 22:10:51 10° NNE
Cosmos 1346 Rocket 4.2 22:04:32 10° WSW 22:06:30 16° W 22:06:30 16° W
H-2A R/B 3.4 22:10:59 13° W 22:14:03 59° SSW 22:29:55 10° ESE
Cosmos 1697 Rocket 4.2 22:11:55 13° WNW 22:14:06 16° W 22:17:20 10° SW
Meteor 2-3 Rocket 4.2 22:09:35 10° SSW 22:14:55 39° W 22:20:14 10° NNW
Cosmos 1484 Rocket 2.5 22:15:33 10° N 22:18:51 51° WNW 22:22:05 10° SSW
CBERS-1 4.0 22:14:24 10° NNE 22:19:29 89° W 22:24:33 10° SSW
SMAP 4.2 22:15:07 10° NNE 22:19:36 49° E 22:24:05 10° S
Cosmos 1606 Rocket 4.0 22:18:25 10° NNW 22:22:33 41° W 22:26:39 10° SSW
USA 59 Rocket 1.5 22:19:45 10° N 22:24:07 49° ENE 22:30:14 10° SE
SL-8 R/B 4.0 22:20:00 10° NW 22:24:43 65° NE 22:29:25 10° SE
Cosmos 1758 Rocket 4.2 22:23:53 10° S 22:28:15 63° E 22:32:37 10° NNE
Thor Agena Rocket 3.7 22:25:56 10° NNE 22:30:57 79° ESE 22:35:57 10° S
OAO 3 Rocket 3.2 22:26:29 10° WSW 22:31:05 60° NNW 22:35:45 10° NE
CZ-3 R/B 2.5 22:17:12 10° WNW 22:32:06 56° SSW 22:37:17 10° SE
OAO 2 Rocket 3.8 22:29:28 10° W 22:34:23 42° NNW 22:39:13 10° NE
Helios 1A Rocket 2.7 22:31:24 10° S 22:34:36 46° W 22:37:49 10° NNW
Cosmos 2237 4.3 22:31:52 10° NNW 22:37:35 86° WSW 22:43:15 10° SSE
BREEZE-M DEB (TANK) 3.9 22:31:24 10° SW 22:39:09 52° NW 22:42:12 10° NNE
